Location: Contre
(49.7477°N, 2.0963°E)
Time: 08:55:16
(UTC+00:00)

METEOR 2-5 DEB - Pass Details

Date: 23 February 2024
Orbit: 788 x 800 km, 81.2° (Epoch: 09 April)

Event Time Altitude Azimuth Distance (km) Brightness Sun altitude
Rises 18:32:47 0° 339° (NNW) 3,321 ? -11.9°
Reaches altitude 10° 18:35:30 10° 327° (NNW) 2,388 ? -12.4°
Maximum altitude 18:39:53 26° 272° (W) 1,535 ? -13.1°
Drops below altitude 10° 18:44:16 10° 217° (SW) 2,380 ? -13.8°
Sets 18:46:59 0° 205° (SSW) 3,307 ? -14.2°
